• Em Portugal
  • Lista de países
  • Para 7 dias
  • Temperatura da água
  • Mapas de satélite
  • Mapa do tempo
  • Widgets de tempo
  • user-avatar
    Iniciar Sessão

    Previsão horária em Suszki

    Hoje, 18 Julho, Quarta-feira

    Tempo Temperatura Precipitação Vento Pressão Humidade
    00:00 +18°C° 0,1 mm 4 m/s 738 mmHg 93%
    01:00 +18°C° 0 mm 4 m/s 737 mmHg 93%
    02:00 +18°C° 0,2 mm 4 m/s 737 mmHg 92%
    03:00 +17°C° 0,2 mm 5 m/s 737 mmHg 92%
    04:00 +17°C° 0,2 mm 5 m/s 737 mmHg 92%
    05:00 +17°C° 0,3 mm 5 m/s 738 mmHg 91%
    06:00 +17°C° 0,3 mm 6 m/s 738 mmHg 90%
    07:00 +19°C° 0,3 mm 6 m/s 738 mmHg 89%
    08:00 +19°C° 0,4 mm 6 m/s 738 mmHg 88%
    09:00 +19°C° 0,4 mm 6 m/s 739 mmHg 86%
    10:00 +20°C° 0,4 mm 7 m/s 739 mmHg 85%
    11:00 +20°C° 0,6 mm 6 m/s 739 mmHg 84%
    12:00 +21°C° 0,6 mm 6 m/s 739 mmHg 83%
    13:00 +21°C° 0,6 mm 6 m/s 739 mmHg 81%
    14:00 +21°C° 0,4 mm 6 m/s 740 mmHg 80%
    15:00 +22°C° 0,4 mm 5 m/s 740 mmHg 78%
    16:00 +22°C° 0,4 mm 5 m/s 740 mmHg 77%
    17:00 +21°C° 0,2 mm 4 m/s 740 mmHg 79%
    18:00 +21°C° 0,2 mm 4 m/s 740 mmHg 81%
    19:00 +20°C° 0,2 mm 3 m/s 740 mmHg 83%
    20:00 +20°C° 0,1 mm 3 m/s 741 mmHg 85%
    21:00 +19°C° 0,1 mm 2 m/s 741 mmHg 87%
    22:00 +19°C° 0,1 mm 2 m/s 741 mmHg 89%
    23:00 +18°C° 0 mm 2 m/s 741 mmHg 91%

    Amanhã, 19 Julho, Quinta-feira

    Tempo Temperatura Precipitação Vento Pressão Humidade
    00:00 +18°C° 0 mm 3 m/s 741 mmHg 92%
    01:00 +17°C° 0 mm 3 m/s 741 mmHg 93%
    02:00 +17°C° 0 mm 3 m/s 741 mmHg 94%
    03:00 +17°C° 0 mm 3 m/s 741 mmHg 94%
    04:00 +17°C° 0 mm 3 m/s 741 mmHg 94%
    05:00 +17°C° 0 mm 4 m/s 741 mmHg 92%
    06:00 +17°C° 0 mm 5 m/s 741 mmHg 89%
    07:00 +19°C° 0 mm 5 m/s 742 mmHg 87%
    08:00 +20°C° 0,1 mm 5 m/s 742 mmHg 82%
    09:00 +21°C° 0,1 mm 5 m/s 742 mmHg 78%
    10:00 +22°C° 0,1 mm 5 m/s 742 mmHg 73%
    11:00 +22°C° 0,2 mm 5 m/s 742 mmHg 71%
    12:00 +23°C° 0,2 mm 5 m/s 742 mmHg 70%
    13:00 +23°C° 0,2 mm 5 m/s 742 mmHg 68%
    14:00 +23°C° 0,2 mm 5 m/s 742 mmHg 67%
    15:00 +25°C° 0,2 mm 5 m/s 742 mmHg 66%
    16:00 +25°C° 0,2 mm 5 m/s 742 mmHg 65%
    17:00 +23°C° 0 mm 4 m/s 742 mmHg 69%
    18:00 +22°C° 0 mm 4 m/s 742 mmHg 72%
    19:00 +21°C° 0 mm 3 m/s 742 mmHg 76%
    20:00 +20°C° 0 mm 3 m/s 742 mmHg 81%
    21:00 +18°C° 0 mm 2 m/s 742 mmHg 87%
    22:00 +17°C° 0 mm 2 m/s 742 mmHg 92%
    23:00 +17°C° 0 mm 2 m/s 742 mmHg 93%

    Depois de amanhã, 20 Julho, Sexta-feira

    Tempo Temperatura Precipitação Vento Pressão Humidade
    00:00 +17°C° 0 mm 2 m/s 742 mmHg 93%
    01:00 +17°C° 0 mm 2 m/s 742 mmHg 94%
    02:00 +16°C° 0 mm 2 m/s 742 mmHg 94%
    03:00 +16°C° 0 mm 2 m/s 742 mmHg 94%
    04:00 +15°C° 0 mm 2 m/s 742 mmHg 94%
    05:00 +17°C° 0 mm 2 m/s 742 mmHg 88%
    06:00 +18°C° 0 mm 2 m/s 742 mmHg 83%
    07:00 +19°C° 0 mm 2 m/s 742 mmHg 77%
    08:00 +20°C° 0 mm 2 m/s 742 mmHg 69%
    09:00 +22°C° 0 mm 3 m/s 742 mmHg 61%
    10:00 +24°C° 0 mm 3 m/s 743 mmHg 52%
    11:00 +25°C° 0 mm 3 m/s 742 mmHg 49%
    12:00 +26°C° 0 mm 3 m/s 742 mmHg 45%
    13:00 +27°C° 0 mm 3 m/s 742 mmHg 41%
    14:00 +27°C° 0 mm 3 m/s 741 mmHg 40%
    15:00 +27°C° 0 mm 2 m/s 741 mmHg 39%
    16:00 +28°C° 0 mm 2 m/s 741 mmHg 38%
    17:00 +26°C° 0 mm 2 m/s 741 mmHg 44%
    18:00 +25°C° 0 mm 2 m/s 740 mmHg 50%
    19:00 +24°C° 0 mm 1 m/s 740 mmHg 55%
    20:00 +22°C° 0 mm 1 m/s 740 mmHg 59%
    21:00 +21°C° 0 mm 1 m/s 740 mmHg 62%
    22:00 +19°C° 0 mm 1 m/s 740 mmHg 66%
    23:00 +19°C° 0 mm 1 m/s 740 mmHg 68%

    21 Julho, Sábado

    Tempo Temperatura Precipitação Vento Pressão Humidade
    00:00 +18°C° 0 mm 1 m/s 740 mmHg 71%
    01:00 +18°C° 0 mm 1 m/s 740 mmHg 74%
    02:00 +18°C° 0 mm 1 m/s 740 mmHg 75%
    03:00 +16°C° 0 mm 1 m/s 739 mmHg 77%
    04:00 +16°C° 0 mm 1 m/s 739 mmHg 78%
    05:00 +19°C° 0 mm 1 m/s 739 mmHg 74%
    06:00 +20°C° 0 mm 1 m/s 739 mmHg 70%
    07:00 +22°C° 0 mm 1 m/s 739 mmHg 66%
    08:00 +24°C° 0 mm 1 m/s 739 mmHg 60%
    09:00 +25°C° 0 mm 2 m/s 739 mmHg 54%
    10:00 +27°C° 0 mm 2 m/s 739 mmHg 48%
    11:00 +28°C° 0 mm 2 m/s 739 mmHg 46%
    12:00 +29°C° 0 mm 1 m/s 739 mmHg 44%
    13:00 +29°C° 0 mm 1 m/s 739 mmHg 42%
    14:00 +29°C° 0 mm 1 m/s 738 mmHg 43%
    15:00 +28°C° 0 mm 1 m/s 738 mmHg 45%
    16:00 +28°C° 0 mm 1 m/s 738 mmHg 47%
    17:00 +27°C° 0 mm 1 m/s 738 mmHg 53%
    18:00 +26°C° 0 mm 1 m/s 738 mmHg 58%
    19:00 +25°C° 0 mm 2 m/s 738 mmHg 64%
    20:00 +23°C° 0 mm 2 m/s 738 mmHg 68%
    21:00 +21°C° 0 mm 2 m/s 738 mmHg 72%
    22:00 +20°C° 0 mm 2 m/s 738 mmHg 76%
    23:00 +19°C° 0 mm 2 m/s 738 mmHg 77%

    22 Julho, Domingo

    Tempo Temperatura Precipitação Vento Pressão Humidade
    00:00 +19°C° 0 mm 2 m/s 738 mmHg 79%
    01:00 +18°C° 0 mm 2 m/s 738 mmHg 80%
    02:00 +19°C° 0 mm 1 m/s 738 mmHg 81%
    03:00 +19°C° 0 mm 1 m/s 738 mmHg 81%
    04:00 +18°C° 0 mm 1 m/s 738 mmHg 82%
    05:00 +19°C° 0 mm 1 m/s 738 mmHg 78%
    06:00 +20°C° 0 mm 1 m/s 738 mmHg 74%
    07:00 +21°C° 0 mm 2 m/s 739 mmHg 70%
    08:00 +23°C° 0 mm 2 m/s 739 mmHg 65%
    09:00 +24°C° 0 mm 2 m/s 739 mmHg 61%
    10:00 +25°C° 0 mm 2 m/s 739 mmHg 56%
    11:00 +26°C° 0,1 mm 2 m/s 739 mmHg 53%
    12:00 +26°C° 0,1 mm 3 m/s 739 mmHg 51%
    13:00 +27°C° 0,1 mm 3 m/s 739 mmHg 48%
    14:00 +27°C° 0,1 mm 3 m/s 739 mmHg 46%
    15:00 +27°C° 0,1 mm 4 m/s 739 mmHg 45%
    16:00 +27°C° 0,1 mm 4 m/s 739 mmHg 44%
    17:00 +26°C° 0 mm 3 m/s 739 mmHg 49%
    18:00 +24°C° 0 mm 3 m/s 739 mmHg 55%
    19:00 +23°C° 0 mm 2 m/s 739 mmHg 61%
    20:00 +21°C° 0 mm 2 m/s 740 mmHg 65%
    21:00 +20°C° 0 mm 1 m/s 740 mmHg 69%
    22:00 +19°C° 0 mm 1 m/s 740 mmHg 73%
    23:00 +19°C° 0 mm 1 m/s 741 mmHg 75%

    23 Julho, Segunda-feira

    Tempo Temperatura Precipitação Vento Pressão Humidade
    00:00 +18°C° 0 mm 1 m/s 741 mmHg 78%
    01:00 +18°C° 0 mm 1 m/s 741 mmHg 81%
    02:00 +16°C° 0 mm 1 m/s 741 mmHg 83%
    03:00 +16°C° 0 mm 1 m/s 741 mmHg 86%
    04:00 +16°C° 0 mm 1 m/s 741 mmHg 88%
    05:00 +18°C° 0 mm 1 m/s 742 mmHg 82%
    06:00 +20°C° 0 mm 1 m/s 742 mmHg 77%
    07:00 +21°C° 0 mm 1 m/s 742 mmHg 71%
    08:00 +23°C° 0 mm 2 m/s 742 mmHg 66%
    09:00 +24°C° 0 mm 2 m/s 743 mmHg 60%
    10:00 +25°C° 0 mm 2 m/s 743 mmHg 54%
    11:00 +26°C° 0,1 mm 2 m/s 742 mmHg 52%
    12:00 +26°C° 0,1 mm 3 m/s 742 mmHg 50%
    13:00 +27°C° 0,1 mm 3 m/s 742 mmHg 47%
    14:00 +27°C° 0 mm 3 m/s 742 mmHg 48%
    15:00 +27°C° 0 mm 3 m/s 742 mmHg 48%
    16:00 +27°C° 0 mm 3 m/s 742 mmHg 49%
    17:00 +26°C° 0 mm 3 m/s 742 mmHg 53%
    18:00 +25°C° 0 mm 2 m/s 742 mmHg 57%
    19:00 +24°C° 0 mm 1 m/s 742 mmHg 62%
    20:00 +22°C° 0 mm 1 m/s 742 mmHg 66%
    21:00 +21°C° 0 mm 1 m/s 742 mmHg 70%
    22:00 +19°C° 0 mm 1 m/s 742 mmHg 74%
    23:00 +18°C° 0 mm 1 m/s 742 mmHg 77%
    Mostrar mais